CGIST CYWP-CYPL

Flight info

Callsign CGIST
Flight time 0h 59m
Altitude 4500
Route DCT
Aircraft C172/L-ACIO/L

Departure

Time 2026-04-17 17:46
Airport Webequie Airport (CYWP)

Arrival

Time 2026-04-17 18:46
Airport Pickle Lake Airport (CYPL)
Time Latitude Longitude Altitude Speed Heading
2026-04-17 17:42 52.96338 -87.37081 692 ft 0 kts 346°
2026-04-17 17:44 52.96339 -87.37081 692 ft 0 kts 346°
2026-04-17 17:45 52.96341 -87.37082 692 ft 0 kts 338°
2026-04-17 17:45 52.96346 -87.37085 691 ft 8 kts 339°
2026-04-17 17:45 52.96374 -87.37235 684 ft 21 kts 266°
2026-04-17 17:45 52.96356 -87.37337 685 ft 0 kts 193°
2026-04-17 17:46 52.96340 -87.37345 685 ft 21 kts 190°
2026-04-17 17:46 52.95942 -87.37497 760 ft 85 kts 190°
2026-04-17 17:46 52.95346 -87.37720 1172 ft 94 kts 197°
2026-04-17 17:46 52.94837 -87.38288 1675 ft 89 kts 236°
2026-04-17 17:47 52.94416 -87.39330 1808 ft 121 kts 234°
2026-04-17 17:47 52.93914 -87.40560 1988 ft 133 kts 236°
2026-04-17 17:47 52.93379 -87.41838 2162 ft 138 kts 235°
2026-04-17 17:47 52.92821 -87.43145 2338 ft 140 kts 235°
2026-04-17 17:48 52.92256 -87.44455 2513 ft 141 kts 234°
2026-04-17 17:48 52.91683 -87.45780 2687 ft 141 kts 235°
2026-04-17 17:48 52.91111 -87.47101 2861 ft 141 kts 234°
2026-04-17 17:48 52.90532 -87.48436 3042 ft 141 kts 234°
2026-04-17 17:49 52.89967 -87.49741 3209 ft 141 kts 234°
2026-04-17 17:49 52.89395 -87.51061 3384 ft 141 kts 234°
2026-04-17 17:49 52.88818 -87.52393 3560 ft 141 kts 234°
2026-04-17 17:49 52.88245 -87.53716 3742 ft 141 kts 234°
2026-04-17 17:50 52.87675 -87.55031 3920 ft 141 kts 234°
2026-04-17 17:50 52.87108 -87.56343 4096 ft 140 kts 234°
2026-04-17 17:50 52.86540 -87.57655 4266 ft 140 kts 235°
2026-04-17 17:50 52.85965 -87.58982 4396 ft 143 kts 235°
2026-04-17 17:51 52.85380 -87.60337 4453 ft 149 kts 235°
2026-04-17 17:51 52.84774 -87.61742 4472 ft 152 kts 235°
2026-04-17 17:51 52.84153 -87.63181 4488 ft 153 kts 235°
2026-04-17 17:51 52.83535 -87.64612 4493 ft 154 kts 235°
2026-04-17 17:52 52.82910 -87.66060 4496 ft 155 kts 235°
2026-04-17 17:52 52.82277 -87.67521 4503 ft 156 kts 235°
2026-04-17 17:52 52.81653 -87.68972 4506 ft 157 kts 235°
2026-04-17 17:52 52.81019 -87.70441 4496 ft 156 kts 235°
2026-04-17 17:53 52.80387 -87.71910 4498 ft 156 kts 235°
2026-04-17 17:53 52.79766 -87.73356 4495 ft 156 kts 235°
2026-04-17 17:53 52.79136 -87.74822 4496 ft 155 kts 235°
2026-04-17 17:53 52.78505 -87.76289 4499 ft 156 kts 235°
2026-04-17 17:54 52.77882 -87.77737 4501 ft 156 kts 235°
2026-04-17 17:54 52.77258 -87.79192 4499 ft 155 kts 235°
2026-04-17 17:54 52.76626 -87.80659 4498 ft 155 kts 235°
2026-04-17 17:54 52.76009 -87.82096 4497 ft 155 kts 235°
2026-04-17 17:55 52.75379 -87.83544 4499 ft 155 kts 233°
2026-04-17 17:55 52.74704 -87.84934 4499 ft 155 kts 230°
2026-04-17 17:55 52.73997 -87.86279 4499 ft 155 kts 229°
2026-04-17 17:55 52.73278 -87.87607 4499 ft 155 kts 229°
2026-04-17 17:56 52.72555 -87.88928 4497 ft 155 kts 228°
2026-04-17 17:56 52.71830 -87.90246 4500 ft 155 kts 228°
2026-04-17 17:56 52.71111 -87.91545 4522 ft 156 kts 227°
2026-04-17 17:56 52.70374 -87.92880 4509 ft 158 kts 228°
2026-04-17 17:57 52.69637 -87.94219 4510 ft 158 kts 228°
2026-04-17 17:57 52.68895 -87.95563 4511 ft 159 kts 228°
2026-04-17 17:57 52.68155 -87.96907 4491 ft 158 kts 228°
2026-04-17 17:57 52.67421 -87.98238 4486 ft 156 kts 228°
2026-04-17 17:58 52.66692 -87.99561 4491 ft 155 kts 228°
2026-04-17 17:58 52.65966 -88.00877 4494 ft 155 kts 228°
2026-04-17 17:58 52.65239 -88.02196 4494 ft 155 kts 228°
2026-04-17 17:58 52.64525 -88.03492 4497 ft 155 kts 228°
2026-04-17 17:59 52.63800 -88.04808 4497 ft 155 kts 228°
2026-04-17 17:59 52.63076 -88.06124 4500 ft 155 kts 228°
2026-04-17 17:59 52.62351 -88.07439 4501 ft 155 kts 228°
2026-04-17 17:59 52.61625 -88.08755 4511 ft 156 kts 228°
2026-04-17 18:00 52.60899 -88.10079 4502 ft 156 kts 228°
2026-04-17 18:00 52.60173 -88.11401 4497 ft 156 kts 228°
2026-04-17 18:00 52.59447 -88.12721 4498 ft 155 kts 228°
2026-04-17 18:00 52.58733 -88.14021 4497 ft 155 kts 228°
2026-04-17 18:01 52.58010 -88.15337 4500 ft 155 kts 228°
2026-04-17 18:01 52.57287 -88.16655 4503 ft 155 kts 228°
2026-04-17 18:01 52.56561 -88.17976 4504 ft 156 kts 228°
2026-04-17 18:01 52.55835 -88.19298 4500 ft 156 kts 229°
2026-04-17 18:02 52.55107 -88.20619 4511 ft 156 kts 228°
2026-04-17 18:02 52.54375 -88.21946 4504 ft 157 kts 228°
2026-04-17 18:02 52.53647 -88.23275 4498 ft 156 kts 228°
2026-04-17 18:02 52.52930 -88.24583 4494 ft 156 kts 229°
2026-04-17 18:03 52.52207 -88.25902 4496 ft 155 kts 229°
2026-04-17 18:03 52.51485 -88.27221 4497 ft 155 kts 229°
2026-04-17 18:03 52.50763 -88.28538 4497 ft 155 kts 229°
2026-04-17 18:03 52.50043 -88.29853 4499 ft 155 kts 229°
2026-04-17 18:04 52.49321 -88.31170 4499 ft 155 kts 229°
2026-04-17 18:04 52.48596 -88.32487 4508 ft 156 kts 227°
2026-04-17 18:04 52.47873 -88.33816 4504 ft 156 kts 229°
2026-04-17 18:04 52.47155 -88.35126 4509 ft 157 kts 229°
2026-04-17 18:05 52.46427 -88.36458 4496 ft 157 kts 229°
2026-04-17 18:05 52.45703 -88.37784 4494 ft 156 kts 229°
2026-04-17 18:05 52.44981 -88.39105 4493 ft 155 kts 229°
2026-04-17 18:05 52.44261 -88.40424 4495 ft 155 kts 229°
2026-04-17 18:06 52.43541 -88.41742 4497 ft 155 kts 229°
2026-04-17 18:06 52.42823 -88.43059 4501 ft 155 kts 229°
2026-04-17 18:06 52.42105 -88.44377 4500 ft 155 kts 229°
2026-04-17 18:06 52.41385 -88.45694 4502 ft 155 kts 229°
2026-04-17 18:07 52.40675 -88.46994 4501 ft 155 kts 229°
2026-04-17 18:07 52.39956 -88.48313 4499 ft 155 kts 229°
2026-04-17 18:07 52.39238 -88.49633 4498 ft 155 kts 229°
2026-04-17 18:07 52.38519 -88.50950 4505 ft 155 kts 228°
2026-04-17 18:08 52.37799 -88.52268 4499 ft 155 kts 229°
2026-04-17 18:08 52.37082 -88.53587 4499 ft 155 kts 229°
2026-04-17 18:08 52.36364 -88.54910 4498 ft 155 kts 229°
2026-04-17 18:08 52.35647 -88.56229 4498 ft 155 kts 229°
2026-04-17 18:09 52.34930 -88.57548 4500 ft 155 kts 229°
2026-04-17 18:09 52.34223 -88.58847 4500 ft 155 kts 229°
2026-04-17 18:09 52.33507 -88.60165 4499 ft 155 kts 229°
2026-04-17 18:09 52.32791 -88.61484 4500 ft 155 kts 229°
2026-04-17 18:10 52.32076 -88.62804 4500 ft 155 kts 229°
2026-04-17 18:10 52.31360 -88.64122 4504 ft 155 kts 229°
2026-04-17 18:10 52.30643 -88.65438 4510 ft 156 kts 229°
2026-04-17 18:10 52.29923 -88.66766 4510 ft 156 kts 230°
2026-04-17 18:11 52.29210 -88.68098 4498 ft 156 kts 229°
2026-04-17 18:11 52.28500 -88.69402 4505 ft 156 kts 229°
2026-04-17 18:11 52.27774 -88.70727 4505 ft 157 kts 229°
2026-04-17 18:11 52.27047 -88.72068 4494 ft 156 kts 229°
2026-04-17 18:12 52.26328 -88.73396 4492 ft 156 kts 229°
2026-04-17 18:12 52.25610 -88.74722 4494 ft 155 kts 229°
2026-04-17 18:12 52.24899 -88.76035 4495 ft 155 kts 229°
2026-04-17 18:12 52.24185 -88.77352 4500 ft 155 kts 229°
2026-04-17 18:13 52.23464 -88.78684 4499 ft 155 kts 229°
2026-04-17 18:13 52.22752 -88.79999 4498 ft 155 kts 229°
2026-04-17 18:13 52.22040 -88.81312 4503 ft 155 kts 229°
2026-04-17 18:13 52.21322 -88.82640 4506 ft 156 kts 229°
2026-04-17 18:14 52.20603 -88.83973 4515 ft 157 kts 229°
2026-04-17 18:14 52.19882 -88.85308 4498 ft 157 kts 229°
2026-04-17 18:14 52.19163 -88.86638 4493 ft 156 kts 229°
2026-04-17 18:14 52.18442 -88.87972 4518 ft 158 kts 229°
2026-04-17 18:15 52.17632 -88.89196 4108 ft 162 kts 211°
2026-04-17 18:15 52.16570 -88.89495 3189 ft 155 kts 172°
2026-04-17 18:15 52.15543 -88.89165 2302 ft 148 kts 162°
2026-04-17 18:15 52.14624 -88.88555 1778 ft 128 kts 168°
2026-04-17 18:16 52.13871 -88.88755 1551 ft 106 kts 216°
2026-04-17 18:16 52.13455 -88.89743 1362 ft 104 kts 247°
2026-04-17 18:16 52.13155 -88.90746 1437 ft 98 kts 245°
2026-04-17 18:16 52.12962 -88.91793 1496 ft 98 kts 264°
2026-04-17 18:17 52.12834 -88.92909 1485 ft 103 kts 233°
2026-04-17 18:17 52.11918 -88.94737 1873 ft 120 kts 231°
2026-04-17 18:17 52.11333 -88.95830 2037 ft 135 kts 231°
2026-04-17 18:18 52.10712 -88.97077 2087 ft 146 kts 231°
2026-04-17 18:18 52.10257 -88.97956 2047 ft 153 kts 229°
2026-04-17 18:18 52.09571 -88.99225 2202 ft 147 kts 229°
2026-04-17 18:18 52.08904 -89.00461 2379 ft 145 kts 229°
2026-04-17 18:19 52.08242 -89.01687 2538 ft 144 kts 229°
2026-04-17 18:19 52.07578 -89.02927 2748 ft 145 kts 229°
2026-04-17 18:19 52.06918 -89.04154 2907 ft 144 kts 229°
2026-04-17 18:19 52.06261 -89.05372 3077 ft 143 kts 229°
2026-04-17 18:20 52.05610 -89.06579 3245 ft 142 kts 229°
2026-04-17 18:20 52.04958 -89.07789 3419 ft 142 kts 229°
2026-04-17 18:20 52.04312 -89.08989 3594 ft 141 kts 229°
2026-04-17 18:20 52.03661 -89.10203 3768 ft 141 kts 229°
2026-04-17 18:21 52.03018 -89.11400 3941 ft 140 kts 229°
2026-04-17 18:21 52.02376 -89.12591 4118 ft 140 kts 229°
2026-04-17 18:21 52.01735 -89.13782 4301 ft 140 kts 229°
2026-04-17 18:21 52.01088 -89.14983 4427 ft 145 kts 229°
2026-04-17 18:22 52.00406 -89.16248 4474 ft 151 kts 229°
2026-04-17 18:22 51.99703 -89.17556 4476 ft 154 kts 229°
2026-04-17 18:22 51.99000 -89.18860 4481 ft 152 kts 229°
2026-04-17 18:22 51.98307 -89.20150 4491 ft 151 kts 229°
2026-04-17 18:23 51.97621 -89.21432 4493 ft 151 kts 230°
2026-04-17 18:23 51.96926 -89.22728 4522 ft 153 kts 229°
2026-04-17 18:23 51.96224 -89.24051 4504 ft 154 kts 230°
2026-04-17 18:23 51.95527 -89.25352 4505 ft 154 kts 230°
2026-04-17 18:24 51.94821 -89.26665 4498 ft 153 kts 229°
2026-04-17 18:24 51.94126 -89.27963 4507 ft 154 kts 230°
2026-04-17 18:24 51.93437 -89.29254 4487 ft 153 kts 230°
2026-04-17 18:24 51.92744 -89.30553 4498 ft 152 kts 230°
2026-04-17 18:25 51.92046 -89.31863 4492 ft 152 kts 230°
2026-04-17 18:25 51.91359 -89.33139 4488 ft 151 kts 229°
2026-04-17 18:25 51.90665 -89.34418 4498 ft 151 kts 229°
2026-04-17 18:25 51.90010 -89.35723 4314 ft 145 kts 228°
2026-04-17 18:26 51.89410 -89.36947 4409 ft 134 kts 230°
2026-04-17 18:26 51.88805 -89.38098 4473 ft 136 kts 230°
2026-04-17 18:26 51.88182 -89.39270 4507 ft 139 kts 230°
2026-04-17 18:26 51.87544 -89.40454 4491 ft 140 kts 230°
2026-04-17 18:27 51.86909 -89.41643 4476 ft 138 kts 230°
2026-04-17 18:27 51.86283 -89.42813 4486 ft 137 kts 230°
2026-04-17 18:27 51.85659 -89.43977 4491 ft 137 kts 230°
2026-04-17 18:27 51.85028 -89.45154 4487 ft 137 kts 230°
2026-04-17 18:28 51.84407 -89.46308 4502 ft 137 kts 230°
2026-04-17 18:28 51.83783 -89.47471 4494 ft 136 kts 230°
2026-04-17 18:28 51.83151 -89.48655 4500 ft 145 kts 230°
2026-04-17 18:28 51.82469 -89.49936 4514 ft 153 kts 230°
2026-04-17 18:29 51.81776 -89.51230 4498 ft 155 kts 230°
2026-04-17 18:29 51.81070 -89.52547 4494 ft 155 kts 229°
2026-04-17 18:29 51.80363 -89.53868 4493 ft 155 kts 230°
2026-04-17 18:29 51.79659 -89.55188 4497 ft 155 kts 230°
2026-04-17 18:30 51.78953 -89.56509 4496 ft 155 kts 230°
2026-04-17 18:30 51.78249 -89.57828 4496 ft 155 kts 230°
2026-04-17 18:30 51.77545 -89.59148 4496 ft 155 kts 230°
2026-04-17 18:30 51.76842 -89.60466 4507 ft 155 kts 229°
2026-04-17 18:31 51.76144 -89.61775 4526 ft 158 kts 230°
2026-04-17 18:31 51.75423 -89.63133 4536 ft 161 kts 230°
2026-04-17 18:31 51.74691 -89.64510 4527 ft 163 kts 230°
2026-04-17 18:31 51.73955 -89.65892 4488 ft 161 kts 230°
2026-04-17 18:32 51.73233 -89.67252 4474 ft 158 kts 230°
2026-04-17 18:32 51.72521 -89.68586 4484 ft 156 kts 230°
2026-04-17 18:32 51.71812 -89.69919 4512 ft 158 kts 230°
2026-04-17 18:32 51.71099 -89.71267 4491 ft 158 kts 230°
2026-04-17 18:33 51.70401 -89.72587 4485 ft 156 kts 230°
2026-04-17 18:33 51.69697 -89.73917 4488 ft 155 kts 230°
2026-04-17 18:33 51.68997 -89.75240 4495 ft 155 kts 230°
2026-04-17 18:33 51.68295 -89.76564 4495 ft 155 kts 230°
2026-04-17 18:34 51.67595 -89.77886 4499 ft 155 kts 229°
2026-04-17 18:34 51.66894 -89.79214 4503 ft 156 kts 230°
2026-04-17 18:34 51.66191 -89.80541 4503 ft 156 kts 230°
2026-04-17 18:34 51.65488 -89.81874 4502 ft 156 kts 230°
2026-04-17 18:35 51.64795 -89.83188 4496 ft 156 kts 230°
2026-04-17 18:35 51.64095 -89.84514 4501 ft 155 kts 230°
2026-04-17 18:35 51.63391 -89.85842 4525 ft 157 kts 230°
2026-04-17 18:35 51.62679 -89.87190 4504 ft 158 kts 230°
2026-04-17 18:36 51.61972 -89.88535 4491 ft 157 kts 230°
2026-04-17 18:36 51.61270 -89.89869 4491 ft 156 kts 230°
2026-04-17 18:36 51.60570 -89.91197 4491 ft 155 kts 230°
2026-04-17 18:36 51.59872 -89.92523 4500 ft 156 kts 230°
2026-04-17 18:37 51.59178 -89.93838 4497 ft 156 kts 230°
2026-04-17 18:37 51.58476 -89.95169 4497 ft 155 kts 230°
2026-04-17 18:37 51.57774 -89.96499 4499 ft 155 kts 230°
2026-04-17 18:37 51.57081 -89.97812 4499 ft 155 kts 230°
2026-04-17 18:38 51.56377 -89.99146 4504 ft 155 kts 230°
2026-04-17 18:38 51.55687 -90.00456 4498 ft 155 kts 230°
2026-04-17 18:38 51.54986 -90.01747 4408 ft 149 kts 229°
2026-04-17 18:38 51.54298 -90.02973 4103 ft 145 kts 227°
2026-04-17 18:39 51.53642 -90.04181 3779 ft 143 kts 230°
2026-04-17 18:39 51.52964 -90.05294 3546 ft 137 kts 225°
2026-04-17 18:39 51.52353 -90.06441 3339 ft 127 kts 233°
2026-04-17 18:39 51.51877 -90.07625 3085 ft 126 kts 239°
2026-04-17 18:40 51.51450 -90.08807 2918 ft 119 kts 242°
2026-04-17 18:40 51.51025 -90.09967 2806 ft 119 kts 239°
2026-04-17 18:40 51.50561 -90.11062 2736 ft 118 kts 233°
2026-04-17 18:40 51.50066 -90.12104 2618 ft 117 kts 233°
2026-04-17 18:41 51.49568 -90.13185 2366 ft 123 kts 233°
2026-04-17 18:41 51.49067 -90.14300 2158 ft 119 kts 242°
2026-04-17 18:41 51.48733 -90.15403 2195 ft 106 kts 246°
2026-04-17 18:41 51.48466 -90.16504 2214 ft 107 kts 250°
2026-04-17 18:42 51.48189 -90.17586 2251 ft 106 kts 249°
2026-04-17 18:42 51.47982 -90.18710 2290 ft 103 kts 256°
2026-04-17 18:42 51.47803 -90.19853 2210 ft 110 kts 259°
2026-04-17 18:42 51.47688 -90.21051 2251 ft 107 kts 261°
2026-04-17 18:43 51.47590 -90.22230 2263 ft 104 kts 262°
2026-04-17 18:43 51.47474 -90.23339 2365 ft 100 kts 262°
2026-04-17 18:43 51.47311 -90.24461 2315 ft 107 kts 255°
2026-04-17 18:43 51.47136 -90.25608 2333 ft 106 kts 258°
2026-04-17 18:44 51.47009 -90.26769 2311 ft 107 kts 253°
2026-04-17 18:44 51.46455 -90.27465 2267 ft 109 kts 191°
2026-04-17 18:44 51.45712 -90.27383 2226 ft 112 kts 169°
2026-04-17 18:44 51.44944 -90.27101 2164 ft 113 kts 166°
2026-04-17 18:45 51.44405 -90.26302 2025 ft 113 kts 81°
2026-04-17 18:45 51.44624 -90.25140 1827 ft 107 kts 72°
2026-04-17 18:45 51.44691 -90.23998 1594 ft 98 kts 93°
2026-04-17 18:45 51.44651 -90.22937 1432 ft 94 kts 91°
2026-04-17 18:46 51.44658 -90.21973 1269 ft 77 kts 88°
2026-04-17 18:46 51.44651 -90.21251 1248 ft 43 kts 93°
2026-04-17 18:46 51.44679 -90.21143 1246 ft 11 kts
2026-04-17 18:46 51.44730 -90.21159 1247 ft 7 kts 311°
2026-04-17 18:47 51.44752 -90.21237 1248 ft 7 kts 288°
2026-04-17 18:47 51.44773 -90.21288 1250 ft 4 kts 234°
2026-04-17 18:47 51.44768 -90.21295 1252 ft 0 kts 193°